Location: ????????
(55.8351°N, 38.7040°E)
Time: 09:51:03
(UTC+00:00)

SAR-Lupe-4 - Pass Details

Date: 14 April 2024
Orbit: 476 x 482 km, 98.1° (Epoch: 02 April)

Event Time Altitude Azimuth Distance (km) Brightness Sun altitude
Rises 00:30:27 0° 13° (NNE) 2,548 8.2 -14.3°
Reaches altitude 10° 00:32:32 10° 11° (N) 1,664 7.1 -14.0°
Maximum altitude 00:36:04 65° 289° (WNW) 532 3.6 -13.7°
Enters shadow 00:38:08 23° 213° (SSW) 1,062 4.7 -13.4°
